Theta_e
327 327 327 326 325 324 324 323 323 323 322 322 321 321 321 321 321 321 322 322 321 321 322 323 325 327 323 322 319 326 352 348 338 331 327 330 328 329 325 327 327 326 328 332 333 333 331
324 325 326 326 326 325 324 323 323 323 322 321 320 320 320 320 320 321 321 320 320 321 322 324 326 326 326 315 326 330 330 335 334 330 330 332 330 332 328 327 326 328 330 331 333 332 334
322 323 324 324 325 324 324 324 323 321 320 320 319 319 319 319 320 320 320 319 319 320 323 325 327 325 319 317 322 329 329 328 334 333 331 334 334 331 331 325 330 328 323 325 330 332 327
323 323 322 323 323 324 323 321 320 319 319 319 319 319 319 319 319 319 318 318 319 321 326 328 328 322 317 323 324 321 327 328 331 336 334 335 335 332 329 330 326 323 324 317 324 332 327
322 322 322 322 321 320 319 318 318 318 318 318 318 318 318 318 318 317 316 317 319 324 327 329 323 322 315 323 317 320 324 325 328 329 331 334 332 327 328 321 318 319 314 316 322 329 329
319 319 319 318 317 317 317 317 317 318 318 318 317 317 317 316 316 315 315 317 328 323 327 326 325 316 319 315 318 319 325 326 325 327 326 327 326 322 322 320 310 313 313 315 317 324 325
316 316 316 316 316 316 315 316 317 317 317 317 316 316 316 315 314 314 316 325 321 319 320 316 317 313 315 319 322 318 321 323 324 323 318 323 318 315 319 321 321 321 316 315 320 322 319
316 314 314 315 314 314 315 316 317 317 317 316 315 315 315 314 313 313 316 321 319 319 312 319 319 319 319 319 314 317 321 315 318 314 320 318 315 321 323 322 322 319 317 316 320 322 319
314 314 314 314 313 313 314 316 316 316 315 315 315 315 314 313 312 318 323 320 325 324 312 314 317 316 317 318 314 315 317 316 315 314 316 314 318 322 321 320 318 318 316 316 316 321 320
314 314 315 314 313 314 315 315 315 315 315 314 314 314 313 311 314 324 322 325 326 324 307 310 313 315 317 317 311 319 319 316 315 312 315 316 321 320 318 317 320 313 320 319 318 315 309
315 315 315 315 315 315 315 315 315 315 314 314 314 313 311 310 315 321 324 326 325 321 297 312 313 319 317 313 313 313 320 316 311 313 315 313 316 317 316 318 320 316 321 319 318 315 313
316 316 315 315 315 315 315 315 315 314 313 313 312 312 310 319 319 325 327 325 322 305 297 308 313 311 310 311 312 315 314 318 316 313 314 313 319 319 318 320 321 322 318 318 318 314 306
317 316 317 317 315 315 315 315 315 314 313 312 311 309 309 317 322 326 325 320 305 299 310 307 308 310 309 308 309 310 310 309 307 304 305 311 311 316 319 315 320 318 314 306 305 305 304
315 315 316 316 315 315 315 315 314 314 313 311 309 307 314 319 325 326 322 311 300 306 306 312 311 310 307 310 309 308 308 306 310 309 306 304 303 311 316 315 313 313 312 307 302 301 306
315 315 315 315 315 315 315 314 314 313 312 310 308 323 321 327 326 325 315 303 304 308 310 308 310 307 306 309 310 308 307 307 309 310 305 304 305 314 314 316 315 312 310 316 309 309 305
314 315 315 316 316 315 315 314 313 312 312 310 314 322 323 328 328 321 310 302 308 313 311 310 304 308 305 308 307 307 307 310 309 312 313 309 304 312 314 315 316 313 315 307 308 301 300
315 314 315 316 316 315 315 314 314 312 310 309 318 318 325 327 326 316 306 307 309 314 312 308 306 306 309 309 309 307 307 311 312 312 313 311 308 308 313 311 309 310 308 309 309 308 303
314 314 315 316 315 315 315 314 313 311 308 313 321 315 325 326 312 314 310 312 308 311 313 310 310 309 308 310 309 309 308 310 314 314 309 312 308 304 307 314 316 313 311 310 306 304 307
313 314 315 315 315 315 315 313 312 310 309 311 318 319 325 323 309 311 314 312 313 311 310 310 309 310 311 308 306 310 311 314 314 312 310 312 306 302 304 309 313 310 311 311 311 310 307
313 313 314 314 315 314 314 313 312 310 309 312 319 313 318 318 318 312 311 310 309 314 311 311 311 313 310 308 311 309 312 314 315 314 325 314 307 305 301 306 310 308 309 311 309 306 306
313 313 313 314 314 315 314 313 312 310 309 314 321 316 318 312 313 315 313 312 309 308 312 314 310 310 310 307 307 308 311 314 315 318 314 311 304 307 308 309 309 309 309 310 308 309 307
313 313 313 313 314 314 315 314 313 311 309 317 309 311 314 313 316 314 309 311 309 311 312 312 311 311 312 308 309 308 313 316 313 315 313 312 305 307 305 308 308 306 309 310 310 310 310
312 312 313 313 313 314 315 314 313 311 311 314 313 314 313 309 313 311 312 314 314 316 316 315 315 315 314 311 316 318 320 320 320 317 315 311 308 306 302 308 307 303 307 309 310 312 311
311 312 312 313 313 313 314 314 314 312 311 313 314 312 310 306 311 311 312 313 314 315 314 317 317 313 316 322 320 319 317 317 320 320 320 314 314 312 304 307 298 308 314 313 310 311 313
310 311 312 312 312 312 313 314 314 313 312 313 316 310 308 303 306 306 309 311 313 315 313 314 317 321 322 318 312 309 309 310 313 315 315 316 313 309 306 304 307 309 313 312 310 310 314
310 311 311 311 312 312 312 313 314 314 312 311 316 315 309 305 306 308 306 307 305 308 312 315 320 321 319 314 310 305 301 304 304 309 315 315 315 311 308 304 301 312 315 319 317 307 317
309 310 311 311 312 312 312 312 313 313 312 310 315 316 310 304 308 309 305 304 309 308 309 314 316 316 319 311 307 305 304 310 303 305 309 311 312 308 307 305 309 318 319 322 309 311 320
309 310 311 311 311 312 312 312 313 313 313 311 313 318 310 305 306 308 309 307 306 306 302 310 311 314 314 308 308 307 307 309 308 312 309 310 308 307 311 307 303 322 320 315 325 329 329
310 310 311 311 311 311 312 312 312 312 312 312 310 315 315 307 306 310 310 311 310 310 307 309 308 309 315 312 313 313 310 313 313 306 316 308 313 308 310 309 321 324 322 329 327 327 330
Wind_Speed
13 12 10 9 9 9 12 15 16 16 18 19 20 20 20 20 21 21 21 21 21 21 20 20 17 15 11 9 13 7 8 6 8 10 15 18 21 7 14 12 5 16 12 12 9 9 12
14 13 12 12 11 10 9 11 14 16 17 19 20 20 21 22 21 21 21 21 22 21 20 18 15 15 8 14 7 10 8 9 13 14 15 17 17 9 12 17 15 5 12 15 12 10 13
13 13 12 12 12 13 11 13 13 16 17 19 20 21 22 23 23 23 22 22 22 21 19 16 11 8 12 16 3 6 8 11 13 13 15 17 9 15 18 4 2 6 29 30 8 12 9
14 13 13 13 12 13 14 15 16 17 17 18 20 21 22 23 25 25 24 23 22 20 16 13 8 7 9 2 4 10 10 13 12 12 14 15 9 15 16 2 7 13 24 12 25 22 12
16 15 14 15 15 15 15 16 17 17 18 19 20 21 23 24 25 26 26 26 22 18 12 11 7 9 15 2 10 15 16 15 15 15 14 13 9 16 20 11 12 18 13 11 13 12 20
17 17 16 16 16 16 16 16 17 17 18 19 20 22 24 25 26 25 28 27 3 7 9 10 11 10 13 13 9 14 13 10 13 15 16 15 13 14 17 14 7 14 8 24 27 14 10
15 15 16 16 16 17 17 17 17 17 18 19 21 22 24 25 27 23 16 6 6 7 12 15 2 15 1 2 5 6 11 11 14 15 19 18 15 16 22 17 14 22 30 34 20 7 8
15 15 16 15 16 17 16 17 17 18 18 20 22 23 24 27 28 27 9 9 8 8 11 16 20 18 14 2 9 15 16 17 17 19 20 19 19 21 23 8 15 7 14 11 9 4 6
16 16 16 16 17 16 17 18 18 18 18 20 22 23 25 28 30 13 10 6 8 10 9 16 22 20 17 14 14 14 19 19 19 20 22 21 21 20 20 20 8 11 15 7 10 17 8
14 15 15 15 15 15 17 17 18 19 20 20 21 22 24 29 8 10 7 4 7 6 7 13 15 12 17 18 15 19 19 18 19 20 23 21 22 23 15 21 10 12 12 9 16 10 14
12 12 13 14 16 16 17 18 19 20 20 21 22 22 22 10 13 8 10 9 9 8 8 14 13 5 10 15 8 21 19 17 22 21 16 21 23 22 21 21 16 16 19 5 9 15 17
13 13 13 13 15 17 18 19 20 21 22 22 22 20 21 3 9 14 12 11 9 8 11 10 11 11 14 19 21 10 20 17 18 22 20 20 21 23 21 20 14 13 19 16 13 11 13
17 16 17 16 17 18 19 21 22 23 24 24 24 19 10 10 4 13 11 9 7 10 4 9 11 14 15 17 19 17 21 20 19 18 20 20 22 23 16 24 16 18 17 12 12 13 7
17 17 17 17 18 19 20 21 23 24 25 26 27 21 9 9 8 10 8 9 9 12 20 6 7 3 15 18 18 22 15 19 22 23 15 19 19 22 12 16 16 21 20 14 16 15 4
16 17 17 17 18 20 21 22 23 25 26 26 32 5 6 7 12 7 8 10 12 16 15 6 10 11 14 14 15 20 21 20 21 25 23 19 22 17 25 18 21 20 19 20 18 19 17
15 17 18 18 19 20 22 24 25 28 28 22 7 10 4 6 6 6 8 15 19 16 8 10 11 19 14 17 12 15 19 19 22 24 25 23 20 21 21 20 19 19 19 16 12 17 18
14 17 18 18 19 20 22 23 25 29 32 23 6 7 6 6 6 7 9 13 16 13 2 8 16 21 13 17 16 15 19 17 19 21 23 22 22 20 16 17 15 14 17 19 17 12 12
16 16 17 18 19 20 22 23 24 26 34 4 8 3 5 5 7 8 11 16 14 16 2 6 16 14 16 16 12 12 18 12 13 13 18 18 14 17 21 13 18 16 18 19 13 14 15
15 16 17 18 19 21 23 24 24 22 19 9 7 2 6 7 8 8 14 13 10 11 10 15 10 13 16 13 10 13 19 7 12 7 9 8 13 16 22 19 14 13 15 20 20 17 17
15 16 17 18 19 21 23 25 26 24 17 7 7 3 6 7 11 14 14 13 7 12 11 17 14 12 14 13 13 15 16 4 6 6 10 8 16 16 16 15 15 21 18 21 20 15 15
14 16 17 18 19 21 22 25 28 30 28 5 6 7 14 6 8 9 10 11 14 6 11 10 15 16 16 15 14 16 17 17 8 6 7 12 18 17 17 20 21 19 18 19 19 22 19
14 15 16 17 18 20 22 24 27 32 38 5 7 6 10 12 14 10 8 10 16 9 10 10 15 15 16 16 18 12 14 16 16 12 11 13 15 15 18 19 20 20 17 14 21 20 20
13 14 15 17 18 19 20 22 25 27 27 6 8 8 7 10 14 6 10 10 11 18 12 5 10 15 18 3 15 16 16 17 22 8 10 15 13 13 15 16 19 20 18 16 14 16 16
13 14 15 16 17 19 19 20 22 22 20 8 7 9 8 9 13 12 15 11 16 7 11 16 7 2 16 17 14 17 17 18 21 15 15 10 10 8 12 14 17 15 17 19 20 20 16
11 12 13 15 16 17 18 19 19 21 21 10 7 6 7 9 13 13 14 15 16 15 16 18 10 20 15 12 11 15 15 19 21 20 18 17 15 12 10 12 15 17 19 19 18 16 15
10 11 12 13 14 15 16 17 18 19 20 11 8 6 6 7 3 17 13 13 11 13 14 15 15 13 12 10 11 15 15 15 17 22 21 21 19 12 11 15 16 14 18 12 15 12 9
10 10 11 12 13 13 14 15 17 18 18 12 7 9 6 8 13 11 11 12 12 13 12 15 14 13 9 7 12 14 15 18 18 19 18 16 15 13 14 12 14 16 18 15 15 8 14
10 10 11 11 12 12 13 14 15 16 17 12 8 3 6 7 16 17 14 13 12 11 11 12 11 7 10 13 13 13 15 15 17 19 5 12 3 11 14 14 13 12 13 11 9 17 16
10 10 11 11 11 12 12 12 13 14 15 14 8 10 8 7 13 24 24 24 24 21 14 13 13 15 7 9 9 8 14 15 15 15 4 1 10 6 1 6 19 16 13 22 12 8 18
Wind_Direction
14 12 10 6 358 20 5 358 355 351 348 345 342 339 336 335 332 330 326 323 320 316 313 309 312 317 314 230 257 141 179 185 213 221 249 273 292 352 289 84 123 121 120 105 110 107 78
11 7 9 5 356 351 356 354 353 349 345 342 339 337 335 332 330 327 323 321 318 312 309 305 309 310 247 253 75 154 199 192 229 214 253 261 305 333 301 122 168 137 147 144 146 117 107
5 0 359 1 356 350 347 345 353 348 343 340 338 335 333 330 327 324 321 318 315 310 305 301 303 293 268 252 304 198 208 233 228 232 251 266 302 307 298 225 156 165 49 11 152 146 81
0 3 1 358 354 358 5 359 352 346 340 337 335 333 330 328 325 322 318 314 310 303 298 291 291 275 260 229 276 238 237 240 251 250 255 293 316 291 284 356 159 252 101 178 274 117 139
23 19 21 23 19 9 2 353 347 343 338 336 334 331 329 326 323 320 317 308 299 287 271 281 252 231 259 142 229 228 230 232 226 233 247 257 279 271 276 246 221 4 20 284 247 146 161
21 18 17 11 6 2 356 350 346 342 338 334 332 329 327 325 321 321 318 294 293 285 229 246 260 267 240 235 215 217 215 250 257 223 232 232 243 255 255 240 132 185 56 292 269 166 197
15 14 8 3 360 356 352 348 342 338 334 332 330 327 325 323 319 321 332 306 218 189 229 244 216 239 76 178 38 217 242 215 242 248 228 224 236 237 252 266 143 188 178 207 233 145 228
9 7 2 359 357 351 348 340 335 333 331 331 329 326 325 322 317 314 277 273 36 337 293 266 254 251 268 271 267 214 210 219 215 236 221 231 225 244 255 218 268 279 267 244 23 139 232
13 7 3 360 356 351 339 339 339 338 334 330 327 326 326 322 317 291 266 8 318 313 267 272 225 230 226 228 247 243 202 212 222 225 236 228 236 224 261 273 222 257 271 115 159 263 276
8 4 360 358 356 340 339 340 339 336 332 328 325 325 327 327 296 336 280 10 314 325 274 243 188 219 217 213 241 245 197 221 228 233 229 241 239 258 215 261 268 241 275 324 315 288 285
353 356 357 354 349 350 344 339 336 331 327 324 322 323 321 330 312 287 6 322 323 266 275 129 157 90 183 201 266 201 238 205 233 229 226 234 242 245 256 237 224 261 284 193 282 294 286
345 344 344 346 351 344 338 335 331 327 323 322 319 320 327 225 207 259 303 311 276 234 245 161 138 196 217 205 243 197 211 211 229 242 249 246 251 241 249 258 259 260 268 276 279 271 270
1 360 353 343 346 344 339 335 331 327 323 320 316 313 298 308 271 343 309 273 228 244 154 166 189 192 206 208 220 223 195 210 218 225 237 243 246 258 238 243 225 246 251 261 245 251 265
358 355 353 352 345 341 338 336 332 328 325 322 314 309 229 241 295 302 287 246 254 236 250 57 355 215 218 226 197 225 198 223 216 229 226 231 226 240 221 256 255 228 250 254 255 261 167
1 358 353 348 344 341 338 336 333 330 328 328 310 202 225 219 222 257 256 232 229 265 347 15 283 232 252 237 254 209 201 226 226 219 239 241 234 230 222 217 234 254 249 244 275 280 276
353 356 351 346 343 341 340 338 336 333 330 333 304 279 200 128 195 228 243 259 277 324 358 332 289 286 249 207 223 233 215 220 228 224 227 247 259 244 214 211 214 237 260 250 229 254 272
352 351 348 345 343 341 341 341 339 335 331 331 242 227 93 154 203 229 244 251 263 264 175 284 288 305 287 296 200 216 247 225 220 231 224 232 255 265 271 197 213 219 241 260 279 281 276
353 351 347 347 345 344 343 342 343 343 335 303 294 271 127 185 221 225 245 249 272 293 69 259 278 295 307 322 318 296 268 218 227 243 237 218 251 253 260 238 205 231 255 236 248 258 267
354 352 351 349 347 346 345 344 343 349 2 318 279 31 144 218 254 259 232 241 294 315 276 265 259 262 275 290 295 284 284 46 31 217 258 227 235 251 254 235 199 242 228 260 245 242 257
353 354 354 350 349 349 347 345 342 343 349 303 276 258 147 196 267 286 299 317 259 231 254 288 303 286 284 263 269 277 284 274 127 269 360 302 277 239 247 246 246 208 223 243 252 256 243
352 353 354 354 352 351 351 348 344 341 341 279 260 358 14 289 325 301 292 317 299 272 209 225 249 258 272 278 259 261 248 283 182 178 247 259 256 266 265 259 270 273 230 211 239 268 278
349 351 353 354 354 353 353 352 349 347 336 241 343 344 342 301 286 267 258 261 272 290 292 308 315 267 261 235 266 280 336 316 286 191 209 240 249 265 274 267 267 272 271 262 220 224 255
345 348 349 351 353 353 354 354 354 358 344 345 11 337 299 293 286 303 319 314 297 318 302 286 304 265 301 296 343 341 312 301 296 294 262 217 230 236 252 255 252 261 258 262 261 270 236
341 342 346 348 350 352 354 356 356 357 5 320 346 313 291 302 305 346 341 314 303 310 268 315 216 350 291 326 333 308 282 277 280 282 287 285 288 269 244 253 254 263 262 249 246 253 255
332 340 343 346 347 349 351 353 355 353 354 330 309 340 320 306 317 305 343 332 323 306 292 287 256 259 264 302 296 283 264 255 248 248 257 266 265 255 257 255 253 261 252 253 247 241 239
321 330 333 340 343 346 349 350 353 351 353 332 320 344 313 301 63 340 318 297 281 293 294 285 264 248 267 266 270 270 263 254 241 243 230 241 249 242 240 271 260 257 244 258 262 258 277
313 323 331 335 339 342 344 347 348 351 349 333 292 21 300 295 269 345 318 325 313 320 312 300 344 325 289 269 264 262 258 242 251 253 252 229 237 241 230 248 267 285 297 337 253 244 236
304 313 322 327 333 336 339 340 343 347 349 342 313 38 341 305 295 284 301 299 285 268 265 295 323 341 252 268 263 253 262 265 252 252 267 277 315 238 227 232 230 4 324 360 359 360 19
296 306 314 320 324 329 332 334 336 342 345 341 300 350 356 279 290 306 289 275 263 272 292 293 291 304 320 320 316 325 309 308 296 290 13 143 259 220 266 309 307 306 31 16 34 10 336